RH
88 90 86 71 59 70 71 65 67 69 72 72 76 66 47 42 34 31 42 38 33 32 41 28 22 17 19 63 73 77 58 49 50 59 71 76 77 78 82 84 77 76 75
98 96 93 83 71 64 70 70 69 67 62 54 51 42 39 39 38 52 53 46 45 41 36 30 28 19 18 33 82 72 60 60 51 58 68 84 82 80 83 82 83 79 77
96 94 96 93 89 84 77 72 68 65 63 61 57 59 63 52 75 81 71 65 57 53 47 38 37 28 18 22 67 66 63 68 59 47 54 75 82 82 81 83 82 80 76
99 97 97 98 95 91 88 86 84 83 81 79 77 72 72 74 68 76 79 71 69 64 58 49 43 44 27 19 34 82 79 80 76 69 60 42 60 80 80 82 78 74 77
91 87 86 85 87 88 86 85 79 75 73 72 71 74 78 77 72 73 73 71 71 71 67 61 56 48 50 34 22 46 82 81 75 79 82 75 74 75 53 50 47 43 40
77 72 65 62 63 64 64 66 67 68 70 72 74 76 77 78 83 82 80 78 76 77 75 72 65 63 50 55 44 24 43 77 80 74 75 79 88 73 50 40 35 32 28
70 64 59 45 37 33 31 30 30 32 35 41 50 59 67 72 76 78 76 77 78 78 80 79 75 69 68 57 53 52 32 39 59 69 70 70 82 86 71 47 35 31 29
67 61 56 52 41 35 31 29 28 28 28 27 26 28 34 50 69 75 78 80 84 85 83 82 80 78 72 73 69 48 59 47 36 39 48 55 76 86 89 54 38 39 37
63 63 54 50 47 43 39 36 34 33 34 36 34 36 42 46 53 50 61 68 73 71 62 71 81 80 79 77 76 77 49 56 45 43 48 70 77 83 92 64 43 64 62
53 51 48 48 49 49 48 46 45 46 46 47 46 48 52 55 54 50 47 53 63 58 49 46 63 76 81 82 83 81 79 47 57 55 45 59 70 80 87 74 49 64 72
61 55 54 53 53 56 55 56 58 57 57 59 54 54 55 54 56 56 55 56 64 61 55 55 56 64 74 81 83 84 84 82 48 62 69 57 58 72 82 88 72 52 67
60 56 54 53 55 63 66 68 67 65 66 67 66 64 64 61 63 65 68 65 66 71 72 72 73 70 75 77 75 82 87 89 84 47 82 77 52 57 79 83 91 57 54
53 54 55 57 57 59 67 74 77 75 75 74 72 70 69 66 61 66 66 68 70 71 68 68 79 80 85 87 78 73 80 90 94 92 53 80 79 65 68 78 83 84 59
46 50 57 60 62 61 64 64 73 78 77 77 74 71 68 68 68 65 65 70 73 74 76 76 72 84 82 84 88 88 81 83 93 93 68 58 78 74 72 70 69 80 63
34 36 39 43 48 54 59 63 65 66 68 70 69 69 70 70 69 69 68 67 69 74 80 78 77 77 79 81 84 82 83 83 80 94 96 65 69 68 67 67 63 61 74
23 23 22 23 22 23 25 26 28 30 32 40 46 46 45 50 60 67 69 71 71 69 71 76 77 73 72 76 81 86 80 71 83 85 90 90 93 82 81 69 64 59 56
21 20 20 19 18 19 19 18 18 18 17 17 17 16 15 17 19 22 30 40 50 62 69 71 72 74 72 72 72 70 75 69 69 76 86 84 85 91 84 83 77 61 45
20 20 20 19 19 19 18 17 16 15 15 14 14 13 13 12 12 12 12 13 15 18 25 38 51 64 68 66 59 55 54 57 61 68 70 80 93 95 94 89 85 82 65
21 21 21 21 21 20 18 17 16 15 14 13 11 11 10 9 8 7 7 6 6 7 7 9 12 15 26 42 59 63 59 54 48 45 48 64 70 86 92 94 87 88 88
22 22 22 22 21 21 20 20 19 16 14 11 9 8 7 6 6 5 5 5 4 4 4 4 4 5 6 8 13 26 48 58 54 49 47 42 57 72 74 82 82 84 87
24 24 23 22 22 22 23 23 20 17 11 10 8 7 7 6 6 5 5 4 4 4 4 4 4 4 4 5 5 7 12 20 33 52 53 46 47 49 50 65 74 80 86
26 25 24 24 23 21 19 16 14 12 10 9 8 8 7 6 6 6 7 7 7 7 6 6 7 7 6 6 11 11 18 12 13 25 42 55 52 48 52 53 48 48 60
28 27 26 25 23 20 18 15 14 12 10 9 8 7 7 9 10 12 12 13 13 14 13 12 12 14 13 10 14 28 26 70 53 28 75 86 86 82 78 75 67 60 52
30 30 28 26 22 19 17 15 13 12 12 11 12 13 13 12 13 15 16 17 17 18 18 18 18 19 20 19 15 22 54 81 82 52 16 21 58 80 86 82 86 89 87
34 32 29 25 22 19 16 15 15 16 19 19 20 20 19 18 17 17 18 21 22 22 22 24 23 24 25 29 26 25 26 27 29 44 49 23 14 15 37 65 73 78 89
35 32 28 24 20 18 17 17 18 21 24 24 23 22 22 23 23 22 25 26 27 29 30 30 31 31 31 32 35 32 32 44 62 59 67 57 36 14 19 45 57 65 76
Wind_Speed
9 8 8 10 11 11 12 12 12 12 13 12 11 10 9 8 8 9 9 10 9 8 9 11 11 9 8 7 8 9 8 8 9 9 8 8 9 11 12 12 11 12 13
8 10 9 10 10 10 10 10 10 10 9 9 8 8 9 8 8 9 9 9 10 9 10 11 11 10 8 6 6 7 8 8 7 8 9 9 8 9 11 11 11 11 11
12 11 12 10 10 9 9 9 9 9 9 9 9 9 9 9 9 8 8 8 9 9 9 9 10 10 8 6 5 5 5 6 6 5 6 7 7 7 9 9 9 9 7
11 8 10 12 12 10 9 9 9 8 8 9 9 8 8 8 7 7 7 8 8 9 10 9 9 9 8 6 4 4 3 1 3 4 4 5 6 6 7 8 8 7 5
11 8 8 9 9 10 10 10 9 8 8 8 8 7 7 6 6 6 6 7 8 8 9 8 8 7 6 5 3 4 5 3 2 2 4 3 3 3 6 7 7 6 5
11 8 7 8 7 7 7 7 8 8 7 6 5 4 4 5 6 5 5 6 7 8 8 8 7 6 5 4 3 1 6 8 6 5 4 3 2 3 4 5 6 6 7
10 7 5 6 6 7 7 6 6 5 5 4 4 4 4 3 4 6 7 7 7 8 9 8 7 6 6 5 3 2 4 7 9 9 9 8 5 6 6 6 6 7 8
7 6 3 4 4 4 4 4 3 3 3 2 3 4 4 4 4 4 5 8 9 9 9 9 9 9 7 6 6 5 6 7 9 9 10 10 10 8 10 8 6 7 9
4 3 3 2 2 2 3 3 3 3 3 3 3 3 3 4 5 5 6 6 7 9 10 10 9 10 9 9 8 8 7 9 9 10 9 8 9 8 11 10 8 8 9
4 4 3 2 1 1 1 2 2 3 4 3 4 4 4 4 6 7 7 8 9 10 10 10 8 9 10 10 10 10 10 10 11 11 10 10 10 8 8 12 11 10 10
3 3 2 1 2 2 3 3 4 4 4 5 6 6 6 8 7 9 10 9 9 10 10 11 11 11 9 9 11 12 12 11 13 14 13 11 12 10 8 13 12 12 12
4 4 3 2 0 1 3 4 6 6 7 6 7 8 9 9 8 6 7 10 12 13 13 12 10 10 11 11 11 13 14 13 13 15 17 15 13 14 12 10 16 14 15
7 5 5 4 4 2 1 3 5 7 8 9 9 9 10 10 11 12 12 12 13 14 16 15 12 10 10 12 13 14 14 15 15 14 20 19 17 15 18 16 13 17 16
7 8 8 8 7 7 7 5 6 7 9 11 12 12 13 13 13 13 13 15 15 15 15 16 16 15 13 13 15 15 16 15 16 19 17 22 20 18 19 21 19 18 20
9 11 11 11 10 10 9 10 10 10 11 13 14 13 11 11 12 13 14 15 16 17 19 19 20 19 20 20 18 19 20 20 19 18 20 21 21 21 20 20 20 22 22
12 11 11 10 10 10 9 9 10 10 10 10 12 13 13 13 14 14 15 16 16 18 19 20 22 23 23 24 24 25 26 25 23 21 21 22 24 23 20 21 23 23 25
10 10 9 10 11 10 11 11 11 12 12 12 13 15 16 16 16 17 17 18 19 20 20 21 22 23 26 27 29 29 29 28 27 26 24 25 25 26 26 23 23 24 25
9 8 8 9 9 10 10 11 11 12 14 14 15 16 17 19 20 20 21 21 22 23 24 25 26 26 26 27 30 29 29 30 29 27 27 27 27 25 28 28 27 25 24
6 6 5 5 6 8 9 11 12 14 15 16 16 17 18 20 22 23 23 23 24 24 25 27 27 29 30 30 32 32 32 32 31 31 30 28 28 28 29 29 30 29 27
4 3 4 5 7 9 10 11 12 14 15 19 21 22 23 24 25 26 27 28 28 28 28 28 28 28 29 34 34 34 36 35 33 33 32 31 30 29 29 30 32 32 33
1 2 4 7 10 12 14 16 18 21 23 24 26 27 27 28 28 29 29 30 31 32 32 31 32 32 31 32 35 38 37 36 37 36 34 33 32 31 31 32 32 34 35
2 3 6 9 13 16 19 22 24 26 27 28 29 29 30 30 30 31 31 31 31 32 32 32 32 34 33 30 30 31 25 33 34 30 30 29 29 31 31 31 33 34 35
2 4 7 12 15 18 21 24 26 28 30 32 32 33 32 31 30 30 30 31 31 31 32 31 30 30 32 31 26 18 11 9 26 24 21 20 22 24 25 25 27 29 31
3 6 10 13 18 21 25 27 29 31 33 33 33 34 33 32 32 30 31 30 31 31 31 30 30 29 30 32 31 23 17 24 13 24 36 34 33 30 27 26 23 19 21
4 8 12 15 19 23 26 28 29 30 31 33 33 34 32 31 29 30 32 33 33 33 32 32 31 30 30 31 30 31 31 30 30 32 37 39 42 39 40 38 34 26 22
7 10 14 18 22 25 28 30 31 32 33 35 35 36 37 37 35 32 32 33 33 35 35 35 33 33 32 32 32 32 33 30 23 24 29 35 44 49 41 42 41 39 32
Wind_Direction
53 60 70 75 79 77 78 81 80 80 78 74 73 65 62 56 47 53 61 55 54 47 41 37 41 48 62 81 86 83 92 99 108 107 104 104 116 121 125 128 128 128 120
88 80 80 83 85 85 82 81 79 76 74 71 63 54 57 62 64 61 62 59 52 44 37 38 41 48 65 93 93 97 100 99 110 120 118 105 107 130 133 133 132 130 123
89 106 96 82 80 81 80 75 70 64 63 64 59 57 54 55 58 52 48 47 40 36 35 40 43 49 59 83 126 120 113 109 107 123 134 121 113 125 136 138 138 135 128
93 87 95 107 95 81 73 70 66 61 58 54 51 51 48 49 49 42 31 24 24 22 23 24 35 46 55 72 121 153 153 126 99 125 124 142 137 146 145 151 153 148 148
98 84 77 81 82 85 94 85 72 64 58 50 42 37 36 34 32 27 17 8 11 14 15 13 13 25 39 54 95 182 201 219 248 129 139 153 146 181 207 208 207 204 194
104 92 81 80 79 80 82 73 76 73 64 54 51 51 43 33 24 13 6 2 359 358 1 358 359 357 7 17 28 215 215 227 237 248 246 195 253 260 215 218 213 196 177
108 99 84 77 78 78 76 77 70 65 60 45 18 10 13 18 21 3 352 348 345 341 339 341 338 336 329 333 318 311 260 243 243 244 253 258 244 266 237 220 209 204 184
115 112 111 96 83 78 79 71 65 62 67 30 5 346 346 341 346 358 357 352 348 342 330 324 322 317 307 304 307 288 279 271 258 252 245 246 244 257 234 229 217 208 192
98 126 151 149 97 58 36 22 0 348 345 337 346 347 353 319 299 299 304 309 312 312 312 312 312 307 304 298 293 293 278 270 266 260 245 240 230 256 233 221 223 209 200
123 126 133 158 197 259 297 301 305 312 318 316 308 318 324 313 305 299 295 292 293 300 306 299 293 301 301 297 293 289 284 270 258 260 258 242 235 240 250 216 224 221 216
97 105 101 155 212 229 237 250 258 270 274 272 279 290 293 298 302 302 305 303 294 292 294 295 293 296 295 294 292 285 278 276 262 247 254 253 252 243 250 235 227 233 226
59 65 63 57 65 238 246 252 263 271 278 277 275 283 294 296 291 285 286 288 291 292 297 300 300 292 281 287 289 284 277 269 264 256 246 248 254 247 243 244 241 236 237
57 56 59 54 50 36 303 272 272 280 288 294 295 295 296 292 286 278 278 277 276 279 286 290 289 286 287 284 277 278 276 272 260 260 249 245 253 251 247 244 255 244 245
61 53 50 42 34 31 24 5 347 322 319 314 314 312 305 300 298 295 287 285 287 288 287 287 282 277 280 284 284 280 274 271 267 260 258 239 248 255 248 249 251 248 240
68 60 54 48 41 36 26 22 14 8 1 360 353 351 341 332 321 316 308 302 296 292 289 286 284 280 271 270 276 279 278 278 270 263 257 243 245 249 254 254 260 254 241
76 72 69 62 56 52 45 38 31 22 15 359 350 347 346 341 333 325 319 312 306 300 296 292 288 284 281 278 271 270 273 277 274 267 258 257 251 247 249 253 256 258 254
100 93 84 70 58 44 37 29 22 16 6 357 355 350 345 340 336 331 325 318 312 307 304 299 292 286 282 279 279 276 272 271 270 268 263 255 254 251 249 250 253 253 252
94 84 70 61 46 35 26 18 11 5 360 353 347 343 337 333 330 325 321 317 314 310 307 303 300 294 292 287 280 277 274 271 267 266 263 261 256 252 251 252 252 252 251
99 85 68 48 30 23 16 10 4 357 350 347 341 334 330 326 322 320 317 314 309 306 303 302 300 300 297 291 287 283 279 273 270 267 263 259 256 254 252 250 251 253 250
97 63 31 13 7 0 353 347 342 342 339 340 338 334 331 326 321 316 312 309 305 302 299 297 295 293 295 294 291 286 282 279 274 270 267 263 259 256 253 251 250 251 253
124 30 5 356 350 343 337 334 334 339 340 336 333 331 326 322 318 314 311 307 304 304 301 301 299 296 291 294 294 285 280 279 277 272 269 265 263 262 260 255 253 251 250
224 349 352 347 347 346 345 343 340 334 331 328 325 323 321 319 317 315 312 308 306 302 299 299 299 299 295 296 306 306 303 288 276 273 265 264 261 259 258 257 254 253 251
280 334 344 346 343 340 337 334 330 326 323 323 322 321 321 320 318 315 311 309 307 305 303 302 300 299 298 293 295 294 308 284 286 269 243 241 241 242 247 253 252 253 251
303 333 338 339 338 336 334 331 329 328 325 324 322 321 320 319 318 316 313 311 308 306 304 301 300 297 296 293 290 288 266 263 294 294 270 253 251 252 251 245 249 250 247
304 320 327 328 331 330 328 327 326 325 325 323 324 322 321 319 317 315 313 312 310 307 303 302 299 294 292 292 289 287 285 279 268 269 282 283 274 262 260 261 255 253 246
293 310 321 326 326 326 328 330 328 328 328 326 325 323 323 322 321 318 314 310 307 306 304 302 298 294 291 287 286 282 280 279 271 264 272 276 277 272 266 257 258 258 251